Starlink 11410

operational
NORAD ID: 61946 Int'l Des: 2024-209 Owner: SPXS Country: US Constellation: starlink
LEOCIRCULAR

About Starlink 11410

Description loading...

Live Position

Loading 3D Globe...

Upcoming Passes

Altitude History

Altitude vs Time

uPlot chart will show altitude changes over time

Two-Line Element Set

1 61946U 24209H 26094.84060558 .00105625 00000-0 86425-3 0 9997
2 61946 53.1575 242.4591 0001148 87.7423 272.3727 15.69748546 80829
Epoch: Apr 4, 2026 • Age: 13 hours

Current Status

Altitude 364.0 km
Velocity 7.70 km/s
Sub-Earth Point 48.15°N, 27.82°W
Launch Date Nov 14, 2024
Age 1.3 years
Type internet

Technical Details

Classification Payload
Mass 960.00 kg
Dry Mass 910.00 kg
Total Mass 960.00 kg
Length 0.30 m
Diameter 4.10 m
Span 29.00 m
Shape Box + pan
Manufacturer SPXS
Bus Type Starlink V2MD
Phase Status In Orbit
Owner/State SPXS/US

Large Constellations

Loading constellations...